Location: Brabourne
(51.1333°N, 1.0000°E)
Time: 12:25:23
(UTC+00:00)

Cosmos 1825 Rocket - Pass Details

Date: 21 October 2021
Orbit: 603 x 631 km, 82.5° (Epoch: 26 November)

Event Time Altitude Azimuth Distance (km) Brightness Sun altitude
Rises 18:53:25 0° 353° (N) 2,883 7.2 -19.9°
Reaches altitude 10° 18:55:44 10° 359° (N) 1,970 6.2 -20.3°
Enters shadow 18:59:21 45° 48° (NE) 839 3.9 -20.9°
